EW3994 Weather Reports


Display with metric or nautical units.
time (UTC)temp
F
wind
direction
speed
MPH
gust
MPH
rain 1hr
in
rain 24hr
in
rain mn
in
humidity
%
barometer
mb
20260506024217 64 300 7.0 16.0 0.00 0.00 0.00 58 1021.9
20260506023316 64 289 8.0 14.0 0.00 0.00 0.00 56 1022.1
20260506022417 64 294 8.0 14.0 0.00 0.00 0.00 56 1022.3
20260506020617 65 291 6.0 12.0 0.00 0.00 0.00 54 1022.5
20260506015717 66 286 7.0 12.0 0.00 0.00 0.00 54 1022.5
20260506014817 67 287 7.0 14.0 0.00 0.00 0.00 52 1022.6
20260506013916 67 301 6.0 12.0 0.00 0.00 0.00 50 1022.7
20260506013017 67 296 7.0 13.0 0.00 0.00 0.00 52 1022.7
20260506012118 65 282 8.0 13.0 0.00 0.00 0.00 55 1022.9
20260506011217 67 291 6.0 13.0 0.00 0.00 0.00 54 1022.9
20260506010317 64 311 5.0 11.0 0.00 0.00 0.00 57 1022.8
20260506005416 66 337 5.0 12.0 0.00 0.00 0.00 55 1022.8
20260506004517 67 337 4.0 10.0 0.00 0.00 0.00 57 1022.9
20260506003617 65 334 4.0 8.0 0.00 0.00 0.00 59 1023.0
20260506002717 60 337 3.0 8.0 0.00 0.00 0.00 64 1023.0
20260506001817 60 341 4.0 10.0 0.00 0.00 0.00 65 1023.0
20260506000916 60 328 3.0 7.0 0.00 0.00 0.00 65 1023.0
20260506000017 59 331 2.0 6.0 0.00 0.00 0.00 65 1023.1
20260505235117 59 2 4.0 8.0 0.00 0.00 0.00 64 1023.0
20260505233317 59 10 4.0 9.0 0.00 0.00 0.00 64 1023.1
20260505230617 58 352 2.0 6.0 0.00 0.00 0.00 65 1023.0
20260505225717 58 355 4.0 8.0 0.00 0.00 0.00 64 1022.9
20260505223916 58 15 3.0 7.0 0.00 0.00 0.00 65 1022.7
20260505222117 57 19 3.0 6.0 0.00 0.00 0.00 64 1022.6
20260505221217 57 12 2.0 6.0 0.00 0.00 0.00 63 1022.6
20260505220317 57 5 2.0 5.0 0.00 0.00 0.00 63 1022.5
20260505215416 57 8 3.0 5.0 0.00 0.00 0.00 63 1022.4
20260505214517 57 359 3.0 7.0 0.00 0.00 0.00 63 1022.3
20260505213616 57 349 2.0 5.0 0.00 0.00 0.00 63 1022.3
20260505212717 57 5 2.0 7.0 0.00 0.00 0.00 63 1022.2
20260505211817 57 14 4.0 7.0 0.00 0.00 0.00 63 1022.1
20260505210016 57 15 3.0 7.0 0.00 0.00 0.00 63 1022.2
20260505205116 57 6 2.0 5.0 0.00 0.00 0.00 63 1022.2
20260505204217 57 16 3.0 8.0 0.00 0.00 0.00 63 1022.2
20260505203316 57 15 3.0 8.0 0.00 0.00 0.00 63 1022.1
20260505201516 57 13 3.0 7.0 0.00 0.00 0.00 63 1022.1
20260505200616 57 18 2.0 7.0 0.00 0.00 0.00 63 1022.0
20260505194816 57 3 3.0 8.0 0.00 0.00 0.00 63 1022.0
20260505193916 57 24 2.0 4.0 0.00 0.00 0.00 63 1022.0
20260505192116 57 16 3.0 7.0 0.00 0.00 0.00 63 1022.0
20260505191215 57 13 2.0 5.0 0.00 0.00 0.00 63 1022.0
20260505190316 57 7 3.0 6.0 0.00 0.01 0.00 63 1022.0
20260505185415 57 18 4.0 8.0 0.00 0.01 0.00 63 1022.0
20260505184516 57 18 4.0 8.0 0.00 0.01 0.00 63 1022.0
20260505183616 57 32 3.0 5.0 0.00 0.01 0.00 63 1022.0
20260505182716 57 32 3.0 6.0 0.00 0.01 0.00 63 1022.0
20260505181816 57 34 2.0 4.0 0.00 0.01 0.00 63 1022.1
20260505180915 57 38 2.0 4.0 0.00 0.01 0.00 63 1022.0
20260505180016 57 32 3.0 5.0 0.00 0.01 0.00 63 1022.1
20260505175116 57 33 2.0 4.0 0.00 0.01 0.00 63 1022.1
20260505174216 57 36 2.0 4.0 0.00 0.01 0.00 63 1022.1
20260505173316 57 30 2.0 4.0 0.00 0.01 0.00 63 1022.3
20260505171516 57 32 0.0 2.0 0.00 0.01 0.00 63 1022.3
20260505170617 57 32 0.0 1.0 0.00 0.01 0.00 63 1022.3
20260505165716 57 0 0.0 0.0 0.00 0.01 0.00 63 1022.4
20260505164816 57 32 0.0 2.0 0.00 0.01 0.00 63 1022.5
20260505163915 57 29 2.0 4.0 0.00 0.01 0.00 63 1022.5
20260505163016 57 50 1.0 3.0 0.00 0.01 0.00 62 1022.6
20260505162116 57 55 0.0 3.0 0.00 0.02 0.00 62 1022.7
20260505161216 58 62 1.0 3.0 0.00 0.02 0.00 62 1022.7
20260505160316 58 58 2.0 4.0 0.00 0.02 0.00 62 1022.7
20260505152716 58 81 2.0 4.0 0.00 0.02 0.00 61 1023.0
20260505151816 58 76 1.0 4.0 0.00 0.02 0.00 61 1023.0
20260505150915 58 75 1.0 4.0 0.00 0.02 0.00 61 1023.0
20260505140615 58 0 0.0 0.0 0.00 0.02 0.02 59 1023.2
20260505124514 58 0 0.0 0.0 0.00 0.02 0.02 58 1023.7
20260505123615 58 0 0.0 0.0 0.00 0.02 0.02 58 1023.8
20260505122715 58 0 0.0 0.0 0.00 0.02 0.02 58 1023.8
20260505121815 58 0 0.0 0.0 0.00 0.02 0.02 58 1023.9
20260505120915 58 0 0.0 0.0 0.00 0.02 0.02 58 1023.8
20260505120015 58 0 0.0 0.0 0.00 0.02 0.02 58 1023.8
20260505115115 58 123 0.0 1.0 0.00 0.02 0.02 58 1023.8
20260505114215 58 123 0.0 2.0 0.00 0.02 0.02 58 1023.8
20260505113315 58 124 1.0 2.0 0.00 0.02 0.02 58 1023.8
20260505111514 58 123 0.0 1.0 0.00 0.02 0.02 58 1023.8
20260505110615 58 123 0.0 1.0 0.00 0.02 0.02 58 1023.9
20260505100314 58 0 0.0 0.0 0.00 0.05 0.02 58 1023.8
20260505092715 58 271 0.0 1.0 0.00 0.05 0.02 59 1023.7
20260505090914 57 0 0.0 0.0 0.00 0.05 0.02 59 1023.6
20260505085115 56 271 0.0 2.0 0.00 0.05 0.02 58 1023.4
20260505083315 57 0 0.0 0.0 0.00 0.05 0.02 58 1023.1
20260505082415 57 0 0.0 0.0 0.00 0.05 0.02 57 1022.9
20260505081514 57 0 0.0 0.0 0.00 0.05 0.02 57 1022.9
20260505080615 57 271 0.0 1.0 0.00 0.05 0.02 57 1022.9
20260505075714 58 261 1.0 3.0 0.00 0.05 0.02 57 1022.8
20260505074814 58 236 1.0 5.0 0.00 0.05 0.02 57 1022.8
20260505073915 58 244 1.0 3.0 0.00 0.05 0.02 56 1022.7
20260505073014 58 243 1.0 4.0 0.00 0.05 0.02 55 1022.7
20260505072114 59 238 2.0 5.0 0.00 0.05 0.02 55 1022.7
20260505064514 61 262 3.0 8.0 0.00 0.05 0.02 52 1022.7
20260505063615 61 246 5.0 8.0 0.00 0.05 0.02 51 1022.7
20260505062714 62 226 5.0 11.0 0.00 0.05 0.02 52 1022.7
20260505061814 62 229 4.0 10.0 0.00 0.05 0.02 52 1022.6
20260505060914 62 211 5.0 9.0 0.00 0.05 0.02 52 1022.6
20260505060013 62 205 6.0 14.0 0.00 0.05 0.02 51 1022.6
20260505055114 63 222 6.0 10.0 0.00 0.05 0.02 51 1022.6
20260505053314 64 221 7.0 14.0 0.00 0.05 0.02 50 1022.3
20260505052414 64 217 5.0 10.0 0.00 0.05 0.02 48 1022.3
20260505051513 65 259 7.0 13.0 0.00 0.05 0.02 44 1022.2
20260505050614 65 249 7.0 13.0 0.00 0.05 0.02 46 1022.1
20260505041214 64 226 4.0 9.0 0.00 0.05 0.02 52 1022.2
20260505040314 63 190 5.0 9.0 0.00 0.05 0.02 52 1022.4
20260505035414 63 221 5.0 10.0 0.00 0.05 0.02 53 1022.5
20260505034513 63 211 4.0 7.0 0.00 0.05 0.02 54 1022.5
20260505033614 63 210 4.0 11.0 0.00 0.05 0.02 54 1022.6
20260505030914 62 234 5.0 9.0 0.00 0.05 0.02 53 1022.9
20260505030013 62 212 6.0 11.0 0.00 0.05 0.02 53 1022.9
20260505025114 63 230 5.0 10.0 0.00 0.05 0.02 53 1023.0